Boulder City, NV

11:42 AM PDT on May 22, 2017 (GMT -0700)
Boulder City

Weather History for KBVU - November, 2013

Change the Weather History Date:

Friday, November 22, 2013

  Actual Average (KLAS) Record (KLAS)
Temperature  
Mean Temperature 46 °F -  
Max Temperature 48 °F 61 °F 77 °F (1976)
Min Temperature 44 °F 40 °F 24 °F (1941)
Degree Days  
Heating Degree Days 19    
Moisture  
Dew Point 39 °F    
Average Humidity 76    
Maximum Humidity 87    
Minimum Humidity 66    
Precipitation  
Precipitation 0.00 in - - ()
Sea Level Pressure  
Sea Level Pressure 29.99 in    
Wind  
Wind Speed 20 mph (North)    
Max Wind Speed 30 mph    
Max Gust Speed 37 mph    
Visibility 9 miles    
Events Rain , Thunderstorm    
Averages and records for this station are not official NWS values.
T = Trace of Precipitation, MM = Missing Value Source: NWS Daily Summary

Daily Weather History Graph

Daily Weather History Graph

Search for Another Location

Airport or City:

Trip Planner

Search our weather history database for the weather conditions in past years. The results will help you decide how hot, cold, wet, or windy it might be!

Date:

Astronomy

Nov. 22, 2013 Rise Set
Actual Time 6:23 AM PST 4:27 PM PST
Civil Twilight 5:55 AM PST 4:55 PM PST
Nautical Twilight 5:24 AM PST 5:26 PM PST
Astronomical Twilight 4:53 AM PST 5:57 PM PST
Moon 9:01 PM PST 10:11 AM PST
Length of Visible Light 11h 00m
Length of Day
10h 04m
Waning Gibbous, 77% of the Moon is Illuminated
Nov 22
Waning Gibbous
Nov 25
Last Quarter
Dec 2
New
Dec 9
First Quarter
Dec 17
Full

Hourly Weather History & Observations

Time (PST) Temp. Windchill Dew Point Humidity Pressure Visibility Wind Dir Wind Speed Gust Speed Precip Events Conditions
12:15 AM 44.6 °F 36.6 °F 39.2 °F 81% 30.00 in 10.0 mi North 19.6 mph 32.2 mph N/A   Overcast
12:35 AM 44.6 °F 36.6 °F 39.2 °F 81% 30.00 in 10.0 mi North 19.6 mph 26.5 mph N/A   Overcast
12:55 AM 44.6 °F 37.2 °F 39.2 °F 81% 30.00 in 10.0 mi North 17.3 mph 25.3 mph N/A   Overcast
1:15 AM 44.6 °F 36.1 °F 37.4 °F 76% 30.01 in 10.0 mi North 21.9 mph 28.8 mph N/A   Overcast
1:35 AM 44.6 °F 36.1 °F 37.4 °F 76% 30.01 in 10.0 mi North 21.9 mph 29.9 mph N/A   Overcast
1:55 AM 44.6 °F 36.9 °F 39.2 °F 81% 30.01 in 10.0 mi North 18.4 mph 27.6 mph N/A   Overcast
2:15 AM 44.6 °F 35.9 °F 39.2 °F 81% 30.00 in 10.0 mi North 23.0 mph - N/A   Overcast
2:35 AM 44.6 °F 36.9 °F 39.2 °F 81% 30.01 in 10.0 mi North 18.4 mph 25.3 mph N/A   Overcast
2:55 AM 44.6 °F 37.2 °F 39.2 °F 81% 30.01 in 7.0 mi North 17.3 mph 25.3 mph N/A   Overcast
3:15 AM 44.6 °F 35.9 °F 39.2 °F 81% 29.99 in 7.0 mi North 23.0 mph 28.8 mph N/A   Overcast
3:35 AM 44.6 °F 35.9 °F 39.2 °F 81% 29.97 in 7.0 mi North 23.0 mph 29.9 mph N/A   Overcast
3:55 AM 44.6 °F 36.4 °F 39.2 °F 81% 29.96 in 7.0 mi North 20.7 mph 27.6 mph N/A   Overcast
4:15 AM 44.6 °F 36.9 °F 39.2 °F 81% 29.97 in 9.0 mi North 18.4 mph 25.3 mph N/A   Overcast
4:35 AM 44.6 °F 35.7 °F 39.2 °F 81% 29.97 in 6.0 mi North 24.2 mph - N/A   Haze
4:55 AM 44.6 °F 36.1 °F 39.2 °F 81% 29.97 in 6.0 mi North 21.9 mph 28.8 mph N/A   Haze
5:15 AM 44.6 °F 36.1 °F 39.2 °F 81% 29.98 in 5.0 mi North 21.9 mph 27.6 mph N/A   Haze
5:35 AM 44.6 °F 35.5 °F 39.2 °F 81% 29.96 in 5.0 mi North 25.3 mph - N/A   Haze
5:55 AM 44.6 °F 35.7 °F 39.2 °F 81% 29.97 in 6.0 mi North 24.2 mph - N/A   Haze
6:15 AM 44.6 °F 35.3 °F 39.2 °F 81% 29.97 in 9.0 mi North 26.5 mph 32.2 mph N/A   Overcast
6:35 AM 44.6 °F 35.5 °F 39.2 °F 81% 29.96 in 7.0 mi North 25.3 mph - N/A   Overcast
6:55 AM 44.6 °F 35.9 °F 39.2 °F 81% 29.96 in 7.0 mi North 23.0 mph - N/A   Overcast
7:15 AM 46.4 °F 38.5 °F 37.4 °F 71% 29.97 in 10.0 mi North 21.9 mph 31.1 mph N/A   Scattered Clouds
7:35 AM 46.4 °F 38.5 °F 37.4 °F 71% 29.97 in 10.0 mi North 21.9 mph 27.6 mph N/A   Scattered Clouds
7:55 AM 46.4 °F 39.5 °F 39.2 °F 76% 29.98 in 7.0 mi North 17.3 mph 26.5 mph N/A   Overcast
8:15 AM 46.4 °F 38.5 °F 37.4 °F 71% 29.99 in 8.0 mi North 21.9 mph - N/A   Overcast
8:35 AM 46.4 °F 39.8 °F 37.4 °F 71% 30.00 in 8.0 mi North 16.1 mph 21.9 mph N/A   Overcast
8:55 AM 48.2 °F - 37.4 °F 66% 29.98 in 10.0 mi North 21.9 mph - N/A   Mostly Cloudy
9:15 AM 48.2 °F - 37.4 °F 66% 29.98 in 10.0 mi North 23.0 mph 28.8 mph N/A   Mostly Cloudy
9:35 AM 48.2 °F - 37.4 °F 66% 29.97 in 10.0 mi North 24.2 mph 31.1 mph N/A   Scattered Clouds
9:55 AM 48.2 °F - 39.2 °F 71% 29.99 in 9.0 mi North 23.0 mph 29.9 mph N/A   Mostly Cloudy
10:15 AM 48.2 °F - 39.2 °F 71% 29.98 in 8.0 mi North 20.7 mph - N/A Rain Light Rain
10:35 AM 48.2 °F - 41.0 °F 76% 29.98 in 8.0 mi NNE 15.0 mph - N/A   Mostly Cloudy
10:55 AM 48.2 °F - 39.2 °F 71% 29.96 in 6.0 mi North 23.0 mph 29.9 mph N/A Rain Light Rain
11:15 AM 48.2 °F - 39.2 °F 71% 29.97 in 6.0 mi NNE 16.1 mph 23.0 mph N/A   Haze
11:35 AM 48.2 °F - 39.2 °F 71% 29.94 in 6.0 mi NNE 18.4 mph 25.3 mph N/A   Haze
11:55 AM 48.2 °F - 39.2 °F 71% 29.91 in 9.0 mi North 29.9 mph 36.8 mph N/A   Mostly Cloudy
12:15 PM 48.2 °F - 39.2 °F 71% 29.95 in 10.0 mi North 13.8 mph - N/A   Mostly Cloudy
12:35 PM 48.2 °F - 41.0 °F 76% 29.96 in 10.0 mi NNE 13.8 mph 20.7 mph N/A   Overcast
12:55 PM 46.4 °F 39.5 °F 41.0 °F 81% 29.95 in 4.0 mi North 17.3 mph - N/A Rain Light Rain
1:15 PM 46.4 °F 40.7 °F 41.0 °F 81% 29.97 in 5.0 mi North 12.7 mph 21.9 mph N/A Rain Light Rain
1:35 PM 46.4 °F 39.8 °F 41.0 °F 81% 29.97 in 5.0 mi North 16.1 mph - N/A Rain Light Rain
1:55 PM 46.4 °F 40.7 °F 41.0 °F 81% 29.98 in 7.0 mi North 12.7 mph - N/A Rain Light Rain
2:15 PM 46.4 °F 38.7 °F 41.0 °F 81% 29.96 in 10.0 mi North 20.7 mph - N/A Rain Light Rain
2:35 PM 44.6 °F 37.4 °F 41.0 °F 87% 29.97 in 7.0 mi North 16.1 mph 23.0 mph N/A   Overcast
2:55 PM 44.6 °F 37.2 °F 39.2 °F 81% 29.96 in 10.0 mi North 17.3 mph 27.6 mph N/A   Overcast
3:15 PM 46.4 °F 40.1 °F 39.2 °F 76% 29.98 in 10.0 mi North 15.0 mph 21.9 mph N/A   Overcast
3:35 PM 46.4 °F 39.0 °F 39.2 °F 76% 29.97 in 10.0 mi North 19.6 mph 29.9 mph N/A   Overcast
3:55 PM 44.6 °F 36.9 °F 39.2 °F 81% 29.99 in 10.0 mi NNW 18.4 mph 26.5 mph N/A   Overcast
4:15 PM 44.6 °F 36.6 °F 39.2 °F 81% 30.00 in 10.0 mi North 19.6 mph 25.3 mph N/A   Overcast
4:35 PM 44.6 °F 35.9 °F 39.2 °F 81% 29.98 in 10.0 mi North 23.0 mph 32.2 mph N/A   Overcast
4:55 PM 46.4 °F 37.7 °F 37.4 °F 71% 29.96 in 10.0 mi North 26.5 mph - N/A   Overcast
5:15 PM 46.4 °F 38.5 °F 37.4 °F 71% 29.98 in 10.0 mi North 21.9 mph 32.2 mph N/A Thunderstorm Thunderstorm
5:35 PM 46.4 °F 38.1 °F 37.4 °F 71% 29.99 in 10.0 mi North 24.2 mph 32.2 mph N/A   Overcast
5:55 PM 46.4 °F 39.5 °F 37.4 °F 71% 30.00 in 10.0 mi North 17.3 mph 26.5 mph N/A   Overcast
6:15 PM 46.4 °F 38.7 °F 37.4 °F 71% 29.99 in 10.0 mi North 20.7 mph 32.2 mph N/A   Overcast
6:35 PM 46.4 °F 40.1 °F 37.4 °F 71% 30.02 in 10.0 mi NNW 15.0 mph 25.3 mph N/A   Overcast
6:55 PM 46.4 °F - 37.4 °F 71% 30.01 in 10.0 mi North - - N/A   Overcast
7:15 PM 48.2 °F - 37.4 °F 66% 29.99 in 10.0 mi North 20.7 mph 28.8 mph N/A   Overcast
7:35 PM 48.2 °F - 37.4 °F 66% 30.01 in 10.0 mi North 16.1 mph 27.6 mph N/A   Overcast
7:55 PM 48.2 °F - 37.4 °F 66% 30.04 in 10.0 mi NNW 13.8 mph - N/A   Overcast
8:15 PM 48.2 °F - 37.4 °F 66% 30.03 in 10.0 mi NNW 15.0 mph 24.2 mph N/A   Overcast
8:35 PM 46.4 °F 40.1 °F 39.2 °F 76% 30.02 in 10.0 mi NNW 15.0 mph - N/A   Light Drizzle
8:55 PM 46.4 °F 40.1 °F 37.4 °F 71% 30.04 in 10.0 mi North 15.0 mph 21.9 mph N/A   Overcast
9:15 PM 46.4 °F 41.9 °F 39.2 °F 76% 30.05 in 10.0 mi NNW 9.2 mph - N/A Rain Light Rain
9:35 PM 46.4 °F 40.1 °F 39.2 °F 76% 30.02 in 10.0 mi North 15.0 mph 20.7 mph N/A Rain Light Rain
9:55 PM 46.4 °F 40.1 °F 39.2 °F 76% 30.03 in 10.0 mi North 15.0 mph 23.0 mph N/A   Overcast
10:15 PM 46.4 °F 39.8 °F 37.4 °F 71% 30.03 in 10.0 mi North 16.1 mph 21.9 mph N/A   Overcast
10:35 PM 46.4 °F 40.1 °F 39.2 °F 76% 30.02 in 10.0 mi NNW 15.0 mph 21.9 mph N/A   Overcast
10:55 PM 46.4 °F 39.8 °F 39.2 °F 76% 30.01 in 9.0 mi North 16.1 mph 24.2 mph N/A Rain Light Rain
11:15 PM 46.4 °F 40.1 °F 39.2 °F 76% 30.01 in 10.0 mi NNW 15.0 mph - N/A   Overcast
11:35 PM 46.4 °F 40.4 °F 39.2 °F 76% 30.00 in 10.0 mi NNW 13.8 mph - N/A   Light Drizzle
11:55 PM 46.4 °F 42.9 °F 39.2 °F 76% 30.03 in 8.0 mi North 6.9 mph 16.1 mph N/A   Light Drizzle